ASA67 PAKT-PASI

Flight info

Callsign ASA67
Flight time 0h 33m
Altitude 26000
Route UDENE3 FLIPS
Aircraft B737/M-SDE2E3FGHIRWXY/LB1

Departure

Time 2026-05-05 01:10
Airport Ketchikan International Airport (PAKT)

Arrival

Time 2026-05-05 01:44
Airport Sitka Rocky Gutierrez Airport (PASI)
Time Latitude Longitude Altitude Speed Heading
2026-05-05 00:43 55.35640 -131.70976 60 ft 0 kts 46°
2026-05-05 01:02 55.35632 -131.70991 51 ft 4 kts 44°
2026-05-05 01:02 55.35613 -131.71024 55 ft 4 kts 47°
2026-05-05 01:02 55.35596 -131.71060 53 ft 4 kts 52°
2026-05-05 01:02 55.35580 -131.71099 57 ft 4 kts 57°
2026-05-05 01:03 55.35574 -131.71115 53 ft 0 kts 57°
2026-05-05 01:03 55.35574 -131.71116 58 ft 0 kts 57°
2026-05-05 01:05 55.35573 -131.71093 56 ft 6 kts 111°
2026-05-05 01:05 55.35512 -131.70985 58 ft 17 kts 135°
2026-05-05 01:06 55.35432 -131.70844 56 ft 16 kts 136°
2026-05-05 01:06 55.35351 -131.70707 61 ft 16 kts 136°
2026-05-05 01:06 55.35271 -131.70573 72 ft 15 kts 136°
2026-05-05 01:06 55.35219 -131.70488 84 ft 15 kts 139°
2026-05-05 01:07 55.35143 -131.70368 91 ft 14 kts 137°
2026-05-05 01:07 55.35041 -131.70207 90 ft 24 kts 137°
2026-05-05 01:07 55.34931 -131.70041 96 ft 19 kts 150°
2026-05-05 01:07 55.34885 -131.70029 96 ft 0 kts 196°
2026-05-05 01:08 55.34859 -131.70071 99 ft 12 kts 221°
2026-05-05 01:08 55.34757 -131.70014 93 ft 20 kts 148°
2026-05-05 01:08 55.34666 -131.69910 94 ft 4 kts 125°
2026-05-05 01:08 55.34676 -131.69881 92 ft 2 kts 19°
2026-05-05 01:09 55.34687 -131.69895 93 ft 0 kts 315°
2026-05-05 01:09 55.34688 -131.69897 93 ft 0 kts 315°
2026-05-05 01:10 55.34703 -131.69922 94 ft 22 kts 315°
2026-05-05 01:10 55.35062 -131.70535 92 ft 119 kts 316°
2026-05-05 01:10 55.35807 -131.71821 434 ft 166 kts 315°
2026-05-05 01:10 55.36629 -131.73273 1607 ft 168 kts 314°
2026-05-05 01:11 55.37461 -131.74732 2686 ft 172 kts 315°
2026-05-05 01:11 55.38396 -131.76364 3139 ft 209 kts 316°
2026-05-05 01:11 55.39512 -131.78302 3474 ft 240 kts 316°
2026-05-05 01:11 55.40776 -131.80493 3959 ft 264 kts 316°
2026-05-05 01:12 55.42110 -131.82789 5014 ft 270 kts 316°
2026-05-05 01:12 55.43460 -131.85102 6209 ft 272 kts 316°
2026-05-05 01:12 55.44832 -131.87447 7312 ft 278 kts 316°
2026-05-05 01:12 55.46232 -131.89838 8376 ft 283 kts 316°
2026-05-05 01:13 55.47624 -131.92327 9393 ft 289 kts 308°
2026-05-05 01:13 55.48572 -131.95484 10363 ft 296 kts 292°
2026-05-05 01:13 55.49365 -131.98999 10816 ft 323 kts 291°
2026-05-05 01:13 55.50198 -132.02836 11296 ft 343 kts 291°
2026-05-05 01:14 55.51057 -132.06805 12187 ft 348 kts 291°
2026-05-05 01:14 55.51927 -132.10805 13218 ft 350 kts 291°
2026-05-05 01:14 55.52803 -132.14807 14244 ft 351 kts 291°
2026-05-05 01:14 55.53701 -132.18834 15249 ft 354 kts 291°
2026-05-05 01:15 55.54608 -132.22898 16213 ft 358 kts 290°
2026-05-05 01:15 55.55513 -132.27014 17130 ft 361 kts 289°
2026-05-05 01:15 55.56392 -132.31132 18010 ft 365 kts 289°
2026-05-05 01:15 55.57338 -132.35373 18904 ft 368 kts 289°
2026-05-05 01:16 55.58256 -132.39549 19736 ft 371 kts 289°
2026-05-05 01:16 55.59190 -132.43821 20550 ft 375 kts 289°
2026-05-05 01:16 55.60135 -132.48148 21318 ft 379 kts 289°
2026-05-05 01:16 55.61088 -132.52520 22083 ft 383 kts 289°
2026-05-05 01:17 55.62050 -132.56935 22821 ft 386 kts 289°
2026-05-05 01:17 55.63021 -132.61396 23512 ft 390 kts 289°
2026-05-05 01:17 55.63996 -132.65887 24222 ft 393 kts 289°
2026-05-05 01:17 55.64971 -132.70390 25097 ft 390 kts 288°
2026-05-05 01:18 55.65941 -132.74873 25687 ft 391 kts 288°
2026-05-05 01:18 55.66911 -132.79367 25946 ft 391 kts 288°
2026-05-05 01:18 55.67877 -132.83857 25963 ft 389 kts 288°
2026-05-05 01:18 55.68841 -132.88305 25955 ft 385 kts 290°
2026-05-05 01:19 55.70188 -132.92436 25967 ft 392 kts 304°
2026-05-05 01:19 55.71900 -132.96205 25962 ft 393 kts 306°
2026-05-05 01:19 55.73658 -132.99926 25967 ft 394 kts 306°
2026-05-05 01:19 55.75429 -133.03647 25973 ft 395 kts 306°
2026-05-05 01:20 55.77197 -133.07385 25965 ft 395 kts 306°
2026-05-05 01:20 55.78959 -133.11141 25963 ft 396 kts 306°
2026-05-05 01:20 55.80710 -133.14902 25968 ft 396 kts 306°
2026-05-05 01:20 55.82462 -133.18690 25974 ft 396 kts 305°
2026-05-05 01:21 55.84201 -133.22469 25971 ft 396 kts 305°
2026-05-05 01:21 55.85941 -133.26261 25969 ft 395 kts 305°
2026-05-05 01:21 55.87680 -133.30058 25975 ft 395 kts 305°
2026-05-05 01:21 55.89417 -133.33860 25977 ft 396 kts 305°
2026-05-05 01:22 55.91153 -133.37666 25982 ft 396 kts 304°
2026-05-05 01:22 55.92889 -133.41476 25983 ft 396 kts 304°
2026-05-05 01:22 55.94624 -133.45293 25986 ft 396 kts 304°
2026-05-05 01:22 55.96360 -133.49116 25997 ft 397 kts 304°
2026-05-05 01:23 55.98097 -133.52948 25983 ft 397 kts 304°
2026-05-05 01:23 55.99839 -133.56798 25566 ft 398 kts 304°
2026-05-05 01:23 56.01568 -133.60622 25028 ft 395 kts 304°
2026-05-05 01:23 56.03285 -133.64420 24470 ft 389 kts 304°
2026-05-05 01:24 56.04972 -133.68161 23898 ft 385 kts 304°
2026-05-05 01:24 56.06644 -133.71876 23321 ft 381 kts 304°
2026-05-05 01:24 56.08299 -133.75560 22735 ft 378 kts 304°
2026-05-05 01:24 56.09938 -133.79215 22164 ft 375 kts 304°
2026-05-05 01:25 56.11561 -133.82840 21594 ft 371 kts 304°
2026-05-05 01:25 56.13169 -133.86438 21026 ft 368 kts 304°
2026-05-05 01:25 56.14764 -133.90011 20452 ft 366 kts 304°
2026-05-05 01:25 56.16346 -133.93561 19887 ft 363 kts 304°
2026-05-05 01:26 56.17916 -133.97086 19313 ft 360 kts 304°
2026-05-05 01:26 56.19472 -134.00588 18755 ft 357 kts 304°
2026-05-05 01:26 56.21013 -134.04059 18209 ft 355 kts 304°
2026-05-05 01:26 56.22551 -134.07530 17637 ft 353 kts 304°
2026-05-05 01:27 56.24073 -134.10971 17074 ft 351 kts 304°
2026-05-05 01:27 56.25589 -134.14402 16493 ft 348 kts 305°
2026-05-05 01:27 56.27086 -134.17793 15945 ft 345 kts 305°
2026-05-05 01:27 56.28573 -134.21167 15377 ft 343 kts 305°
2026-05-05 01:28 56.30031 -134.24480 14831 ft 341 kts 306°
2026-05-05 01:28 56.31498 -134.27819 14280 ft 339 kts 306°
2026-05-05 01:28 56.32953 -134.31134 13732 ft 336 kts 306°
2026-05-05 01:28 56.34396 -134.34428 13180 ft 334 kts 306°
2026-05-05 01:29 56.35829 -134.37703 12632 ft 332 kts 307°
2026-05-05 01:29 56.37252 -134.40959 12083 ft 329 kts 307°
2026-05-05 01:29 56.38662 -134.44189 11537 ft 327 kts 307°
2026-05-05 01:29 56.40067 -134.47402 10991 ft 325 kts 307°
2026-05-05 01:30 56.41467 -134.50586 10448 ft 322 kts 308°
2026-05-05 01:30 56.42821 -134.53706 10282 ft 308 kts 308°
2026-05-05 01:30 56.44112 -134.56699 10118 ft 295 kts 308°
2026-05-05 01:30 56.45346 -134.59552 9940 ft 284 kts 308°
2026-05-05 01:31 56.46558 -134.62355 9549 ft 282 kts 308°
2026-05-05 01:31 56.47759 -134.65132 9182 ft 279 kts 308°
2026-05-05 01:31 56.48950 -134.67888 8801 ft 277 kts 308°
2026-05-05 01:31 56.50132 -134.70626 8431 ft 275 kts 308°
2026-05-05 01:32 56.51313 -134.73336 8039 ft 273 kts 308°
2026-05-05 01:32 56.52474 -134.76051 7670 ft 271 kts 308°
2026-05-05 01:32 56.53630 -134.78744 7280 ft 270 kts 308°
2026-05-05 01:32 56.54777 -134.81422 6927 ft 269 kts 309°
2026-05-05 01:33 56.55950 -134.84065 6536 ft 269 kts 310°
2026-05-05 01:33 56.57079 -134.86747 6154 ft 267 kts 308°
2026-05-05 01:33 56.58190 -134.89394 5999 ft 261 kts 308°
2026-05-05 01:33 56.59300 -134.91977 6006 ft 260 kts 309°
2026-05-05 01:34 56.60414 -134.94573 6023 ft 261 kts 308°
2026-05-05 01:34 56.61527 -134.97191 6006 ft 263 kts 308°
2026-05-05 01:34 56.62644 -134.99812 5991 ft 262 kts 308°
2026-05-05 01:34 56.63755 -135.02423 5999 ft 261 kts 308°
2026-05-05 01:35 56.64848 -135.04993 6007 ft 260 kts 308°
2026-05-05 01:35 56.65969 -135.07633 6005 ft 260 kts 309°
2026-05-05 01:35 56.67082 -135.10218 6008 ft 260 kts 308°
2026-05-05 01:35 56.68179 -135.12829 6003 ft 260 kts 308°
2026-05-05 01:36 56.69282 -135.15448 6006 ft 261 kts 308°
2026-05-05 01:36 56.70372 -135.18030 6007 ft 261 kts 308°
2026-05-05 01:36 56.71478 -135.20647 5995 ft 261 kts 308°
2026-05-05 01:36 56.72582 -135.23263 6009 ft 260 kts 308°
2026-05-05 01:37 56.73686 -135.25883 6014 ft 261 kts 308°
2026-05-05 01:37 56.74790 -135.28507 6005 ft 261 kts 308°
2026-05-05 01:37 56.76041 -135.30887 5973 ft 262 kts 326°
2026-05-05 01:37 56.77737 -135.32257 5487 ft 271 kts 343°
2026-05-05 01:38 56.79534 -135.33240 5095 ft 269 kts 343°
2026-05-05 01:38 56.81299 -135.34208 4710 ft 260 kts 343°
2026-05-05 01:38 56.83008 -135.35169 4354 ft 255 kts 343°
2026-05-05 01:38 56.84697 -135.36133 4026 ft 253 kts 343°
2026-05-05 01:39 56.86349 -135.37084 3712 ft 245 kts 343°
2026-05-05 01:39 56.87942 -135.37979 3368 ft 234 kts 346°
2026-05-05 01:39 56.89505 -135.38489 3052 ft 223 kts 352°
2026-05-05 01:39 56.91008 -135.38882 2761 ft 213 kts 352°
2026-05-05 01:40 56.92444 -135.39264 2487 ft 203 kts 352°
2026-05-05 01:40 56.93805 -135.39635 2200 ft 191 kts 353°
2026-05-05 01:40 56.95038 -135.39373 1966 ft 172 kts 27°
2026-05-05 01:40 56.95947 -135.38125 1765 ft 157 kts 42°
2026-05-05 01:41 56.96693 -135.36814 1596 ft 140 kts 43°
2026-05-05 01:41 56.97353 -135.35631 1447 ft 129 kts 43°
2026-05-05 01:41 56.97996 -135.34467 1295 ft 133 kts 43°
2026-05-05 01:41 56.98642 -135.33281 1180 ft 132 kts 42°
2026-05-05 01:42 56.99313 -135.32142 1056 ft 130 kts 36°
2026-05-05 01:42 57.00058 -135.31208 952 ft 130 kts 22°
2026-05-05 01:42 57.00929 -135.30912 866 ft 127 kts 355°
2026-05-05 01:42 57.01771 -135.31264 694 ft 123 kts 342°
2026-05-05 01:43 57.02481 -135.32141 509 ft 126 kts 312°
2026-05-05 01:43 57.03093 -135.33249 350 ft 124 kts 315°
2026-05-05 01:43 57.03713 -135.34365 166 ft 124 kts 315°
2026-05-05 01:43 57.04314 -135.35444 37 ft 113 kts 315°
2026-05-05 01:44 57.04787 -135.36297 36 ft 78 kts 315°
2026-05-05 01:44 57.05066 -135.36799 35 ft 48 kts 315°
2026-05-05 01:44 57.05250 -135.37134 36 ft 33 kts 315°
2026-05-05 01:44 57.05371 -135.37242 34 ft 18 kts 42°
2026-05-05 01:45 57.05381 -135.37084 34 ft 14 kts 135°
2026-05-05 01:45 57.05314 -135.36962 34 ft 13 kts 135°
2026-05-05 01:45 57.05248 -135.36847 32 ft 13 kts 136°
2026-05-05 01:45 57.05220 -135.36709 34 ft 12 kts 75°
2026-05-05 01:46 57.05234 -135.36611 34 ft 0 kts 76°